| time (UTC) | temp C | wind direction | speed KPH | gust KPH | rain 1hr cm | rain 24hr cm | rain mn cm | humidity % | barometer mb |
| 20260507191756 | 18 | 171 | 9.7 | 27.4 | 0.00 | 0.00 | 0.00 | 54 | 1013.5 |
| 20260507191256 | 18 | 187 | 16.1 | 24.1 | 0.00 | 0.00 | 0.00 | 54 | 1013.4 |
| 20260507190734 | 18 | 182 | 14.5 | 29.0 | 0.00 | 0.00 | 0.00 | 55 | 1013.3 |
| 20260507190234 | 18 | 221 | 16.1 | 29.0 | 0.00 | 0.00 | 0.00 | 54 | 1013.4 |
| 20260507185733 | 18 | 157 | 11.3 | 25.7 | 0.00 | 0.00 | 0.00 | 55 | 1013.6 |
| 20260507185212 | 18 | 207 | 12.9 | 27.4 | 0.00 | 0.00 | 0.00 | 57 | 1013.6 |
| 20260507184711 | 18 | 271 | 17.7 | 29.0 | 0.00 | 0.00 | 0.00 | 54 | 1013.8 |
| 20260507184211 | 18 | 212 | 11.3 | 29.0 | 0.00 | 0.00 | 0.00 | 55 | 1013.7 |
| 20260507183710 | 18 | 200 | 14.5 | 25.7 | 0.00 | 0.00 | 0.00 | 55 | 1013.9 |
| 20260507183209 | 18 | 213 | 11.3 | 22.5 | 0.00 | 0.00 | 0.00 | 56 | 1013.9 |
| 20260507182709 | 18 | 179 | 11.3 | 22.5 | 0.00 | 0.00 | 0.00 | 56 | 1013.9 |
| 20260507182208 | 18 | 170 | 17.7 | 24.1 | 0.00 | 0.00 | 0.00 | 57 | 1014.0 |
| 20260507181708 | 18 | 175 | 12.9 | 30.6 | 0.00 | 0.00 | 0.00 | 58 | 1014.2 |
| 20260507181208 | 17 | 142 | 12.9 | 30.6 | 0.00 | 0.00 | 0.00 | 57 | 1014.2 |
| 20260507180709 | 17 | 205 | 19.3 | 30.6 | 0.00 | 0.00 | 0.00 | 57 | 1014.3 |
| 20260507180207 | 17 | 226 | 16.1 | 32.2 | 0.00 | 0.00 | 0.00 | 57 | 1014.3 |
| 20260507175706 | 17 | 226 | 14.5 | 32.2 | 0.00 | 0.00 | 0.00 | 56 | 1014.4 |
| 20260507175206 | 17 | 207 | 12.9 | 35.4 | 0.00 | 0.00 | 0.00 | 56 | 1014.6 |
| 20260507174705 | 17 | 153 | 20.9 | 35.4 | 0.00 | 0.00 | 0.00 | 57 | 1014.7 |
| 20260507174205 | 17 | 226 | 16.1 | 32.2 | 0.00 | 0.00 | 0.00 | 58 | 1014.7 |
| 20260507173643 | 17 | 192 | 12.9 | 32.2 | 0.00 | 0.00 | 0.00 | 58 | 1014.9 |
| 20260507173143 | 17 | 213 | 20.9 | 33.8 | 0.00 | 0.00 | 0.00 | 58 | 1014.9 |
| 20260507172643 | 17 | 232 | 20.9 | 33.8 | 0.00 | 0.00 | 0.00 | 59 | 1015.1 |
| 20260507172142 | 17 | 191 | 14.5 | 30.6 | 0.00 | 0.00 | 0.00 | 60 | 1015.0 |
| 20260507171621 | 16 | 227 | 9.7 | 29.0 | 0.00 | 0.00 | 0.00 | 60 | 1015.0 |
| 20260507171100 | 16 | 218 | 14.5 | 29.0 | 0.00 | 0.00 | 0.00 | 59 | 1015.0 |
| 20260507170559 | 16 | 227 | 12.9 | 30.6 | 0.00 | 0.00 | 0.00 | 58 | 1015.1 |
| 20260507170059 | 16 | 237 | 19.3 | 30.6 | 0.00 | 0.00 | 0.00 | 59 | 1015.3 |
| 20260507165559 | 16 | 254 | 12.9 | 32.2 | 0.00 | 0.00 | 0.00 | 59 | 1015.2 |
| 20260507165058 | 16 | 241 | 14.5 | 32.2 | 0.00 | 0.00 | 0.00 | 60 | 1015.3 |
| 20260507164558 | 16 | 234 | 17.7 | 27.4 | 0.00 | 0.00 | 0.00 | 60 | 1015.4 |
| 20260507164057 | 16 | 268 | 17.7 | 30.6 | 0.00 | 0.00 | 0.00 | 60 | 1015.5 |
| 20260507163557 | 16 | 179 | 16.1 | 30.6 | 0.00 | 0.00 | 0.00 | 60 | 1015.6 |
| 20260507163056 | 16 | 241 | 19.3 | 30.6 | 0.00 | 0.00 | 0.00 | 60 | 1015.6 |
| 20260507162556 | 16 | 267 | 12.9 | 30.6 | 0.00 | 0.00 | 0.00 | 62 | 1015.7 |
| 20260507162034 | 16 | 213 | 12.9 | 29.0 | 0.00 | 0.00 | 0.00 | 62 | 1015.6 |
| 20260507161534 | 16 | 193 | 12.9 | 29.0 | 0.00 | 0.00 | 0.00 | 63 | 1015.7 |
| 20260507161012 | 15 | 168 | 14.5 | 27.4 | 0.00 | 0.00 | 0.00 | 63 | 1015.8 |
| 20260507160512 | 15 | 212 | 14.5 | 27.4 | 0.00 | 0.00 | 0.00 | 63 | 1015.6 |
| 20260507160011 | 15 | 233 | 19.3 | 29.0 | 0.00 | 0.00 | 0.00 | 62 | 1015.8 |
| 20260507155510 | 15 | 221 | 16.1 | 29.0 | 0.00 | 0.00 | 0.00 | 64 | 1015.8 |
| 20260507154949 | 15 | 255 | 12.9 | 25.7 | 0.00 | 0.00 | 0.00 | 64 | 1015.8 |
| 20260507154449 | 15 | 229 | 11.3 | 25.7 | 0.00 | 0.00 | 0.00 | 66 | 1015.9 |
| 20260507153948 | 15 | 246 | 14.5 | 27.4 | 0.00 | 0.00 | 0.00 | 67 | 1016.1 |
| 20260507153427 | 15 | 248 | 17.7 | 24.1 | 0.00 | 0.00 | 0.00 | 66 | 1015.9 |
| 20260507152926 | 14 | 236 | 12.9 | 25.7 | 0.00 | 0.00 | 0.00 | 66 | 1016.1 |
| 20260507152426 | 14 | 227 | 12.9 | 25.7 | 0.00 | 0.00 | 0.00 | 66 | 1016.1 |
| 20260507151925 | 14 | 221 | 11.3 | 29.0 | 0.00 | 0.00 | 0.00 | 67 | 1016.2 |
| 20260507151403 | 13 | 235 | 12.9 | 33.8 | 0.00 | 0.00 | 0.00 | 67 | 1016.2 |
| 20260507150842 | 13 | 254 | 17.7 | 27.4 | 0.00 | 0.00 | 0.00 | 68 | 1016.3 |
| 20260507150320 | 13 | 180 | 11.3 | 17.7 | 0.00 | 0.00 | 0.00 | 69 | 1016.4 |
| 20260507145759 | 13 | 267 | 0.0 | 3.2 | 0.00 | 0.00 | 0.00 | 69 | 1016.5 |
| 20260507145259 | 13 | 246 | 0.0 | 1.6 | 0.00 | 0.00 | 0.00 | 71 | 1016.5 |
| 20260507144737 | 13 | 242 | 0.0 | 1.6 | 0.00 | 0.00 | 0.00 | 72 | 1016.5 |
| 20260507144215 | 13 | 219 | 0.0 | 1.6 | 0.00 | 0.00 | 0.00 | 72 | 1016.5 |
| 20260507143715 | 12 | 187 | 0.0 | 12.9 | 0.00 | 0.00 | 0.00 | 73 | 1016.5 |
| 20260507143214 | 12 | 254 | 0.0 | 24.1 | 0.00 | 0.00 | 0.00 | 74 | 1016.6 |
| 20260507142714 | 12 | 216 | 9.7 | 24.1 | 0.00 | 0.00 | 0.00 | 75 | 1016.7 |
| 20260507142213 | 12 | 224 | 11.3 | 17.7 | 0.00 | 0.00 | 0.00 | 75 | 1016.6 |
| 20260507141652 | 12 | 245 | 9.7 | 17.7 | 0.00 | 0.00 | 0.00 | 75 | 1016.4 |
| 20260507141151 | 11 | 249 | 12.9 | 19.3 | 0.00 | 0.00 | 0.00 | 76 | 1016.5 |
| 20260507140650 | 11 | 215 | 9.7 | 19.3 | 0.00 | 0.00 | 0.00 | 77 | 1016.6 |
| 20260507140150 | 11 | 189 | 6.4 | 19.3 | 0.00 | 0.00 | 0.00 | 78 | 1016.7 |
| 20260507135629 | 11 | 188 | 9.7 | 24.1 | 0.00 | 0.00 | 0.00 | 77 | 1016.7 |
| 20260507135128 | 11 | 224 | 11.3 | 24.1 | 0.00 | 0.00 | 0.00 | 78 | 1016.6 |
| 20260507134628 | 11 | 209 | 12.9 | 19.3 | 0.00 | 0.00 | 0.00 | 78 | 1016.6 |
| 20260507134106 | 10 | 246 | 9.7 | 19.3 | 0.00 | 0.00 | 0.00 | 79 | 1016.6 |
| 20260507133606 | 10 | 213 | 8.0 | 16.1 | 0.00 | 0.00 | 0.00 | 80 | 1016.5 |
| 20260507133106 | 10 | 232 | 8.0 | 12.9 | 0.00 | 0.00 | 0.00 | 81 | 1016.5 |
| 20260507132605 | 10 | 213 | 8.0 | 12.9 | 0.00 | 0.00 | 0.00 | 82 | 1016.5 |
| 20260507132105 | 10 | 228 | 4.8 | 16.1 | 0.00 | 0.00 | 0.00 | 83 | 1016.6 |
| 20260507131604 | 9 | 198 | 8.0 | 16.1 | 0.00 | 0.00 | 0.00 | 84 | 1016.7 |
| 20260507131103 | 9 | 240 | 6.4 | 16.1 | 0.00 | 0.00 | 0.00 | 85 | 1016.7 |
| 20260507130603 | 8 | 169 | 6.4 | 11.3 | 0.00 | 0.00 | 0.00 | 86 | 1016.6 |
| 20260507130042 | 8 | 219 | 8.0 | 12.9 | 0.00 | 0.00 | 0.00 | 87 | 1016.6 |
| 20260507125541 | 8 | 204 | 4.8 | 11.3 | 0.00 | 0.00 | 0.00 | 87 | 1016.9 |
| 20260507125041 | 7 | 217 | 4.8 | 11.3 | 0.00 | 0.00 | 0.00 | 88 | 1016.8 |
| 20260507124541 | 7 | 216 | 4.8 | 11.3 | 0.00 | 0.00 | 0.00 | 88 | 1016.9 |
| 20260507124040 | 7 | 225 | 3.2 | 8.0 | 0.00 | 0.00 | 0.00 | 88 | 1016.8 |
| 20260507123540 | 7 | 204 | 6.4 | 8.0 | 0.00 | 0.00 | 0.00 | 88 | 1016.9 |
| 20260507123039 | 6 | 194 | 3.2 | 8.0 | 0.00 | 0.00 | 0.00 | 88 | 1016.9 |
| 20260507122539 | 6 | 186 | 3.2 | 8.0 | 0.00 | 0.00 | 0.00 | 87 | 1016.8 |
| 20260507122038 | 6 | 182 | 4.8 | 8.0 | 0.00 | 0.00 | 0.00 | 87 | 1016.9 |
| 20260507121517 | 6 | 202 | 6.4 | 8.0 | 0.00 | 0.00 | 0.00 | 87 | 1016.9 |
| 20260507120955 | 6 | 207 | 0.0 | 6.4 | 0.00 | 0.00 | 0.00 | 86 | 1016.9 |
| 20260507120455 | 6 | 207 | 0.0 | 3.2 | 0.00 | 0.00 | 0.00 | 86 | 1016.8 |
| 20260507115955 | 5 | 207 | 0.0 | 3.2 | 0.00 | 0.00 | 0.00 | 86 | 1016.7 |
| 20260507115454 | 5 | 207 | 0.0 | 0.0 | 0.00 | 0.00 | 0.00 | 85 | 1016.7 |
| 20260507114954 | 5 | 207 | 0.0 | 0.0 | 0.00 | 0.00 | 0.00 | 85 | 1016.7 |
| 20260507114453 | 6 | 207 | 0.0 | 0.0 | 0.00 | 0.00 | 0.00 | 85 | 1016.7 |
| 20260507113952 | 6 | 207 | 0.0 | 0.0 | 0.00 | 0.00 | 0.00 | 85 | 1016.7 |
| 20260507113452 | 6 | 207 | 0.0 | 0.0 | 0.00 | 0.00 | 0.00 | 84 | 1016.8 |
| 20260507112951 | 6 | 207 | 0.0 | 0.0 | 0.00 | 0.00 | 0.00 | 84 | 1016.8 |
| 20260507112451 | 6 | 207 | 0.0 | 0.0 | 0.00 | 0.00 | 0.00 | 84 | 1016.7 |
| 20260507111950 | 6 | 207 | 0.0 | 0.0 | 0.00 | 0.00 | 0.00 | 84 | 1016.7 |
| 20260507111450 | 6 | 207 | 0.0 | 0.0 | 0.00 | 0.00 | 0.00 | 84 | 1016.7 |
| 20260507110949 | 6 | 207 | 0.0 | 4.8 | 0.00 | 0.00 | 0.00 | 84 | 1016.8 |
| 20260507110449 | 6 | 207 | 0.0 | 4.8 | 0.00 | 0.00 | 0.00 | 84 | 1016.7 |
| 20260507105948 | 6 | 207 | 0.0 | 0.0 | 0.00 | 0.00 | 0.00 | 83 | 1016.6 |
| 20260507105448 | 6 | 207 | 0.0 | 1.6 | 0.00 | 0.00 | 0.00 | 84 | 1016.6 |
| 20260507104926 | 6 | 207 | 0.0 | 3.2 | 0.00 | 0.00 | 0.00 | 83 | 1016.5 |
| 20260507104405 | 6 | 207 | 1.6 | 4.8 | 0.00 | 0.00 | 0.00 | 83 | 1016.7 |
| 20260507103843 | 6 | 208 | 1.6 | 4.8 | 0.00 | 0.00 | 0.00 | 83 | 1016.5 |
| 20260507103343 | 6 | 218 | 0.0 | 0.0 | 0.00 | 0.00 | 0.00 | 83 | 1016.6 |
| 20260507102821 | 6 | 218 | 0.0 | 0.0 | 0.00 | 0.00 | 0.00 | 83 | 1016.7 |
| 20260507102321 | 6 | 218 | 0.0 | 0.0 | 0.00 | 0.00 | 0.00 | 83 | 1016.6 |
| 20260507101821 | 6 | 218 | 0.0 | 3.2 | 0.00 | 0.00 | 0.00 | 82 | 1016.6 |
| 20260507101259 | 6 | 218 | 0.0 | 4.8 | 0.00 | 0.00 | 0.00 | 82 | 1016.7 |
| 20260507100759 | 6 | 218 | 3.2 | 4.8 | 0.00 | 0.00 | 0.00 | 82 | 1016.7 |
| 20260507100258 | 6 | 218 | 0.0 | 3.2 | 0.00 | 0.00 | 0.00 | 82 | 1016.7 |
| 20260507095758 | 6 | 219 | 0.0 | 1.6 | 0.00 | 0.00 | 0.00 | 82 | 1016.7 |
| 20260507095257 | 6 | 219 | 0.0 | 4.8 | 0.00 | 0.00 | 0.00 | 82 | 1016.7 |
| 20260507094757 | 6 | 219 | 0.0 | 4.8 | 0.00 | 0.00 | 0.00 | 82 | 1016.7 |
| 20260507094257 | 6 | 248 | 0.0 | 3.2 | 0.00 | 0.00 | 0.00 | 82 | 1016.7 |
| 20260507093756 | 6 | 250 | 0.0 | 4.8 | 0.00 | 0.00 | 0.00 | 81 | 1016.8 |
| 20260507093256 | 6 | 257 | 1.6 | 4.8 | 0.00 | 0.00 | 0.00 | 81 | 1016.9 |
| 20260507092755 | 6 | 303 | 0.0 | 3.2 | 0.00 | 0.00 | 0.00 | 81 | 1016.9 |
| 20260507092255 | 6 | 306 | 1.6 | 3.2 | 0.00 | 0.00 | 0.00 | 81 | 1016.8 |
| 20260507091754 | 6 | 316 | 0.0 | 0.0 | 0.00 | 0.00 | 0.00 | 81 | 1016.9 |
| 20260507091254 | 6 | 317 | 0.0 | 3.2 | 0.00 | 0.00 | 0.00 | 81 | 1016.9 |
| 20260507090732 | 6 | 317 | 1.6 | 3.2 | 0.00 | 0.00 | 0.00 | 81 | 1016.9 |
| 20260507090211 | 6 | 318 | 0.0 | 0.0 | 0.00 | 0.00 | 0.00 | 81 | 1017.0 |
| 20260507085710 | 6 | 319 | 0.0 | 0.0 | 0.00 | 0.00 | 0.00 | 81 | 1016.9 |
| 20260507085210 | 6 | 319 | 0.0 | 0.0 | 0.00 | 0.00 | 0.00 | 80 | 1017.1 |
| 20260507084709 | 6 | 319 | 0.0 | 0.0 | 0.00 | 0.00 | 0.00 | 80 | 1017.1 |
| 20260507084209 | 6 | 319 | 0.0 | 0.0 | 0.00 | 0.00 | 0.00 | 80 | 1017.1 |
| 20260507083708 | 6 | 319 | 0.0 | 0.0 | 0.00 | 0.00 | 0.00 | 80 | 1017.1 |
| 20260507083147 | 6 | 319 | 0.0 | 0.0 | 0.00 | 0.00 | 0.00 | 80 | 1017.1 |
| 20260507082646 | 6 | 319 | 0.0 | 0.0 | 0.00 | 0.00 | 0.00 | 80 | 1017.1 |
| 20260507082146 | 6 | 319 | 0.0 | 0.0 | 0.00 | 0.00 | 0.00 | 80 | 1017.1 |
| 20260507081645 | 6 | 319 | 0.0 | 0.0 | 0.00 | 0.00 | 0.00 | 79 | 1017.1 |
| 20260507081145 | 6 | 319 | 0.0 | 0.0 | 0.00 | 0.00 | 0.00 | 79 | 1017.1 |
| 20260507080644 | 6 | 319 | 0.0 | 0.0 | 0.00 | 0.00 | 0.00 | 79 | 1017.1 |
| 20260507080144 | 7 | 319 | 0.0 | 0.0 | 0.00 | 0.00 | 0.00 | 78 | 1017.1 |
| 20260507075622 | 7 | 319 | 0.0 | 0.0 | 0.00 | 0.00 | 0.00 | 78 | 1017.1 |
| 20260507075121 | 7 | 319 | 0.0 | 0.0 | 0.00 | 0.00 | 0.00 | 78 | 1017.1 |
| 20260507074621 | 7 | 319 | 0.0 | 0.0 | 0.00 | 0.00 | 0.00 | 78 | 1017.1 |
| 20260507074120 | 7 | 319 | 0.0 | 0.0 | 0.00 | 0.00 | 0.00 | 77 | 1017.0 |
| 20260507073620 | 7 | 319 | 0.0 | 0.0 | 0.00 | 0.00 | 0.00 | 77 | 1017.1 |
| 20260507073119 | 7 | 319 | 0.0 | 0.0 | 0.00 | 0.00 | 0.00 | 77 | 1017.2 |
| 20260507072619 | 7 | 319 | 0.0 | 0.0 | 0.00 | 0.00 | 0.00 | 77 | 1017.3 |
| 20260507072118 | 7 | 319 | 0.0 | 0.0 | 0.00 | 0.00 | 0.00 | 77 | 1017.3 |
| 20260507071618 | 7 | 319 | 0.0 | 0.0 | 0.00 | 0.00 | 0.00 | 77 | 1017.5 |
| 20260507071116 | 7 | 319 | 0.0 | 0.0 | 0.00 | 0.00 | 0.00 | 77 | 1017.5 |
| 20260507070616 | 7 | 319 | 0.0 | 0.0 | 0.00 | 0.00 | 0.00 | 77 | 1017.6 |
| 20260507070115 | 7 | 319 | 0.0 | 0.0 | 0.00 | 0.00 | 0.00 | 77 | 1017.7 |
| 20260507065615 | 7 | 319 | 0.0 | 0.0 | 0.00 | 0.00 | 0.00 | 77 | 1017.7 |
| 20260507065115 | 7 | 319 | 0.0 | 0.0 | 0.00 | 0.00 | 0.00 | 77 | 1017.7 |
| 20260507064614 | 7 | 319 | 0.0 | 0.0 | 0.00 | 0.00 | 0.00 | 77 | 1017.7 |
| 20260507064052 | 7 | 327 | 0.0 | 0.0 | 0.00 | 0.00 | 0.00 | 78 | 1017.7 |
| 20260507063531 | 7 | 329 | 0.0 | 0.0 | 0.00 | 0.00 | 0.00 | 78 | 1017.8 |
| 20260507063030 | 7 | 340 | 0.0 | 0.0 | 0.00 | 0.00 | 0.00 | 79 | 1017.9 |
| 20260507062530 | 7 | 340 | 0.0 | 0.0 | 0.00 | 0.00 | 0.00 | 79 | 1017.8 |
| 20260507062030 | 7 | 340 | 0.0 | 3.2 | 0.00 | 0.00 | 0.00 | 80 | 1017.9 |
| 20260507061508 | 7 | 341 | 0.0 | 3.2 | 0.00 | 0.00 | 0.00 | 81 | 1017.9 |
| 20260507060947 | 7 | 341 | 0.0 | 0.0 | 0.00 | 0.00 | 0.00 | 81 | 1018.0 |
| 20260507060446 | 7 | 341 | 0.0 | 0.0 | 0.00 | 0.00 | 0.00 | 82 | 1017.9 |
| 20260507055946 | 7 | 341 | 0.0 | 0.0 | 0.00 | 0.00 | 0.00 | 82 | 1017.9 |
| 20260507055445 | 7 | 341 | 0.0 | 0.0 | 0.00 | 0.00 | 0.00 | 82 | 1017.9 |
| 20260507054945 | 7 | 341 | 0.0 | 0.0 | 0.00 | 0.00 | 0.00 | 82 | 1017.8 |
| 20260507054444 | 7 | 341 | 0.0 | 0.0 | 0.00 | 0.00 | 0.00 | 83 | 1017.8 |
| 20260507053943 | 7 | 341 | 0.0 | 0.0 | 0.00 | 0.00 | 0.00 | 83 | 1017.8 |
| 20260507053443 | 7 | 341 | 0.0 | 0.0 | 0.00 | 0.00 | 0.00 | 84 | 1017.8 |
| 20260507052943 | 7 | 341 | 0.0 | 0.0 | 0.00 | 0.00 | 0.00 | 84 | 1017.8 |
| 20260507052421 | 7 | 341 | 0.0 | 0.0 | 0.00 | 0.00 | 0.00 | 85 | 1017.8 |
| 20260507051921 | 7 | 341 | 0.0 | 0.0 | 0.00 | 0.00 | 0.00 | 85 | 1017.8 |
| 20260507051420 | 6 | 341 | 0.0 | 0.0 | 0.00 | 0.00 | 0.00 | 85 | 1017.8 |
| 20260507050920 | 7 | 341 | 0.0 | 0.0 | 0.00 | 0.00 | 0.00 | 85 | 1017.8 |
| 20260507050419 | 7 | 341 | 0.0 | 0.0 | 0.00 | 0.00 | 0.00 | 85 | 1017.8 |
| 20260507045919 | 7 | 341 | 0.0 | 0.0 | 0.00 | 0.00 | 0.00 | 85 | 1017.8 |
| 20260507045419 | 7 | 341 | 0.0 | 0.0 | 0.00 | 0.00 | 0.00 | 85 | 1017.8 |
| 20260507044918 | 7 | 341 | 0.0 | 0.0 | 0.00 | 0.00 | 0.00 | 85 | 1017.9 |
| 20260507044418 | 7 | 341 | 0.0 | 0.0 | 0.00 | 0.00 | 0.00 | 84 | 1017.9 |
| 20260507043918 | 6 | 341 | 0.0 | 0.0 | 0.00 | 0.00 | 0.00 | 84 | 1017.9 |
| 20260507043417 | 7 | 341 | 0.0 | 0.0 | 0.00 | 0.00 | 0.00 | 84 | 1017.9 |
| 20260507042917 | 7 | 341 | 0.0 | 0.0 | 0.00 | 0.00 | 0.00 | 84 | 1017.9 |
| 20260507042417 | 7 | 341 | 0.0 | 0.0 | 0.00 | 0.00 | 0.00 | 83 | 1017.9 |
| 20260507041916 | 7 | 341 | 0.0 | 0.0 | 0.00 | 0.00 | 0.00 | 82 | 1017.8 |
| 20260507041416 | 7 | 341 | 0.0 | 0.0 | 0.00 | 0.00 | 0.00 | 82 | 1017.8 |
| 20260507040915 | 7 | 341 | 0.0 | 0.0 | 0.00 | 0.00 | 0.00 | 82 | 1018.0 |
| 20260507040415 | 7 | 341 | 0.0 | 0.0 | 0.00 | 0.00 | 0.00 | 81 | 1018.0 |
| 20260507035915 | 7 | 341 | 0.0 | 0.0 | 0.00 | 0.00 | 0.00 | 80 | 1018.0 |
| 20260507035414 | 7 | 341 | 0.0 | 0.0 | 0.00 | 0.00 | 0.00 | 80 | 1018.1 |
| 20260507034913 | 7 | 341 | 0.0 | 0.0 | 0.00 | 0.00 | 0.00 | 79 | 1018.1 |
| 20260507034413 | 7 | 341 | 0.0 | 0.0 | 0.00 | 0.00 | 0.00 | 78 | 1018.0 |
| 20260507033911 | 7 | 341 | 0.0 | 0.0 | 0.00 | 0.00 | 0.00 | 77 | 1018.2 |
| 20260507033411 | 7 | 341 | 0.0 | 0.0 | 0.00 | 0.00 | 0.00 | 77 | 1018.2 |
| 20260507032911 | 7 | 341 | 0.0 | 0.0 | 0.00 | 0.00 | 0.00 | 77 | 1018.1 |
| 20260507032410 | 7 | 341 | 0.0 | 0.0 | 0.00 | 0.00 | 0.00 | 76 | 1018.0 |
| 20260507031910 | 7 | 341 | 0.0 | 0.0 | 0.00 | 0.00 | 0.00 | 77 | 1018.0 |
| 20260507031409 | 8 | 341 | 0.0 | 0.0 | 0.00 | 0.00 | 0.00 | 76 | 1017.8 |
| 20260507030909 | 8 | 341 | 0.0 | 0.0 | 0.00 | 0.00 | 0.00 | 75 | 1018.0 |
| 20260507030408 | 8 | 341 | 0.0 | 0.0 | 0.00 | 0.00 | 0.00 | 74 | 1017.9 |
| 20260507025908 | 8 | 341 | 0.0 | 0.0 | 0.00 | 0.00 | 0.00 | 73 | 1017.9 |
| 20260507025407 | 8 | 341 | 0.0 | 0.0 | 0.00 | 0.00 | 0.00 | 73 | 1017.9 |
| 20260507024907 | 8 | 341 | 0.0 | 0.0 | 0.00 | 0.00 | 0.00 | 73 | 1017.9 |
| 20260507024406 | 8 | 341 | 0.0 | 1.6 | 0.00 | 0.00 | 0.00 | 71 | 1017.9 |
| 20260507023906 | 9 | 341 | 0.0 | 3.2 | 0.00 | 0.00 | 0.00 | 70 | 1017.7 |
| 20260507023344 | 9 | 341 | 1.6 | 4.8 | 0.00 | 0.00 | 0.00 | 69 | 1017.7 |
| 20260507022844 | 10 | 341 | 1.6 | 4.8 | 0.00 | 0.00 | 0.00 | 68 | 1017.7 |
| 20260507022343 | 10 | 340 | 1.6 | 3.2 | 0.00 | 0.00 | 0.00 | 66 | 1017.6 |
| 20260507021842 | 10 | 341 | 0.0 | 0.0 | 0.00 | 0.00 | 0.00 | 64 | 1017.6 |
| 20260507021321 | 10 | 340 | 0.0 | 0.0 | 0.00 | 0.00 | 0.00 | 62 | 1017.6 |
| 20260507020820 | 11 | 341 | 0.0 | 0.0 | 0.00 | 0.00 | 0.00 | 60 | 1017.4 |
| 20260507020320 | 11 | 340 | 0.0 | 0.0 | 0.00 | 0.00 | 0.00 | 59 | 1017.5 |
| 20260507015820 | 11 | 341 | 0.0 | 0.0 | 0.00 | 0.00 | 0.00 | 57 | 1017.5 |
| 20260507015319 | 12 | 341 | 0.0 | 0.0 | 0.00 | 0.00 | 0.00 | 55 | 1017.4 |
| 20260507014758 | 12 | 340 | 0.0 | 0.0 | 0.00 | 0.00 | 0.00 | 54 | 1017.4 |
| 20260507014236 | 12 | 340 | 0.0 | 0.0 | 0.00 | 0.00 | 0.00 | 53 | 1017.3 |
| 20260507013736 | 13 | 341 | 0.0 | 0.0 | 0.00 | 0.00 | 0.00 | 53 | 1017.3 |
| 20260507013214 | 13 | 341 | 0.0 | 0.0 | 0.00 | 0.00 | 0.00 | 51 | 1017.4 |
| 20260507012714 | 13 | 341 | 0.0 | 0.0 | 0.00 | 0.00 | 0.00 | 50 | 1017.3 |
| 20260507012213 | 13 | 340 | 0.0 | 0.0 | 0.00 | 0.00 | 0.00 | 50 | 1017.3 |
| 20260507011712 | 13 | 341 | 0.0 | 3.2 | 0.00 | 0.00 | 0.00 | 50 | 1017.4 |
| 20260507011151 | 14 | 340 | 0.0 | 3.2 | 0.00 | 0.00 | 0.00 | 46 | 1017.2 |
| 20260507010650 | 14 | 340 | 1.6 | 4.8 | 0.00 | 0.00 | 0.00 | 46 | 1017.1 |
| 20260507010149 | 14 | 340 | 3.2 | 6.4 | 0.00 | 0.00 | 0.00 | 45 | 1017.3 |
| 20260507005628 | 14 | 340 | 4.8 | 6.4 | 0.00 | 0.00 | 0.00 | 44 | 1017.4 |
| 20260507005128 | 15 | 340 | 4.8 | 6.4 | 0.00 | 0.00 | 0.00 | 45 | 1017.5 |
| 20260507004628 | 15 | 340 | 4.8 | 12.9 | 0.00 | 0.00 | 0.00 | 44 | 1017.5 |
| 20260507004127 | 15 | 340 | 4.8 | 12.9 | 0.00 | 0.00 | 0.00 | 43 | 1017.5 |
| 20260507003627 | 15 | 343 | 6.4 | 12.9 | 0.00 | 0.00 | 0.00 | 42 | 1017.1 |
| 20260507003126 | 15 | 336 | 4.8 | 12.9 | 0.00 | 0.00 | 0.00 | 41 | 1017.2 |
| 20260507002626 | 15 | 342 | 4.8 | 12.9 | 0.00 | 0.00 | 0.00 | 43 | 1017.1 |
| 20260507002104 | 15 | 323 | 4.8 | 14.5 | 0.00 | 0.00 | 0.00 | 40 | 1017.2 |
| 20260507001603 | 15 | 355 | 11.3 | 19.3 | 0.00 | 0.00 | 0.00 | 41 | 1017.1 |
| 20260507001103 | 15 | 340 | 9.7 | 19.3 | 0.00 | 0.00 | 0.00 | 39 | 1017.1 |
| 20260507000602 | 15 | 338 | 6.4 | 22.5 | 0.00 | 0.00 | 0.00 | 43 | 1017.1 |
| 20260507000101 | 15 | 355 | 9.7 | 22.5 | 0.00 | 0.00 | 0.00 | 40 | 1017.1 |
| 20260506235601 | 15 | 355 | 8.0 | 19.3 | 0.00 | 0.00 | 0.00 | 41 | 1017.2 |
| 20260506235100 | 15 | 333 | 3.2 | 20.9 | 0.00 | 0.00 | 0.00 | 39 | 1017.2 |
| 20260506234600 | 15 | 326 | 6.4 | 20.9 | 0.00 | 0.00 | 0.00 | 41 | 1017.2 |
| 20260506234059 | 15 | 338 | 11.3 | 16.1 | 0.00 | 0.00 | 0.00 | 39 | 1017.3 |
| 20260506233559 | 15 | 331 | 8.0 | 16.1 | 0.00 | 0.00 | 0.00 | 39 | 1017.3 |
| 20260506233057 | 15 | 331 | 3.2 | 24.1 | 0.00 | 0.00 | 0.00 | 39 | 1017.2 |
| 20260506232557 | 15 | 19 | 14.5 | 24.1 | 0.00 | 0.00 | 0.00 | 38 | 1017.2 |
| 20260506232056 | 15 | 360 | 11.3 | 19.3 | 0.00 | 0.00 | 0.00 | 40 | 1017.3 |
| 20260506231556 | 16 | 337 | 9.7 | 20.9 | 0.00 | 0.00 | 0.00 | 40 | 1017.3 |
| 20260506231056 | 16 | 321 | 3.2 | 20.9 | 0.00 | 0.00 | 0.00 | 40 | 1017.3 |
| 20260506230534 | 16 | 331 | 8.0 | 16.1 | 0.00 | 0.00 | 0.00 | 40 | 1017.3 |
| 20260506230034 | 15 | 333 | 8.0 | 17.7 | 0.00 | 0.00 | 0.00 | 39 | 1017.4 |
| 20260506225533 | 16 | 346 | 11.3 | 22.5 | 0.00 | 0.00 | 0.00 | 38 | 1017.4 |
| 20260506225012 | 15 | 345 | 16.1 | 22.5 | 0.00 | 0.00 | 0.00 | 39 | 1017.4 |
| 20260506224512 | 15 | 346 | 8.0 | 20.9 | 0.00 | 0.00 | 0.00 | 40 | 1017.3 |
| 20260506224011 | 15 | 62 | 6.4 | 20.9 | 0.00 | 0.00 | 0.00 | 41 | 1017.4 |
| 20260506223511 | 15 | 5 | 6.4 | 12.9 | 0.00 | 0.00 | 0.00 | 39 | 1017.3 |
| 20260506223010 | 15 | 355 | 9.7 | 16.1 | 0.00 | 0.00 | 0.00 | 39 | 1017.5 |
| 20260506222510 | 15 | 350 | 11.3 | 16.1 | 0.00 | 0.00 | 0.00 | 39 | 1017.4 |
| 20260506222009 | 15 | 313 | 4.8 | 16.1 | 0.00 | 0.00 | 0.00 | 38 | 1017.5 |
| 20260506221509 | 15 | 329 | 1.6 | 16.1 | 0.00 | 0.00 | 0.00 | 38 | 1017.6 |
| 20260506221008 | 15 | 315 | 9.7 | 16.1 | 0.00 | 0.00 | 0.00 | 39 | 1017.6 |
| 20260506220508 | 15 | 319 | 4.8 | 20.9 | 0.00 | 0.00 | 0.00 | 41 | 1017.6 |
| 20260506220008 | 15 | 331 | 8.0 | 25.7 | 0.00 | 0.00 | 0.00 | 41 | 1017.6 |
| 20260506215446 | 15 | 321 | 3.2 | 25.7 | 0.00 | 0.00 | 0.00 | 39 | 1017.6 |
| 20260506214946 | 15 | 355 | 12.9 | 25.7 | 0.00 | 0.00 | 0.00 | 40 | 1017.6 |
| 20260506214446 | 15 | 323 | 4.8 | 25.7 | 0.00 | 0.00 | 0.00 | 40 | 1017.7 |
| 20260506213945 | 15 | 320 | 6.4 | 19.3 | 0.00 | 0.00 | 0.00 | 41 | 1017.5 |
| 20260506213445 | 15 | 321 | 12.9 | 20.9 | 0.00 | 0.00 | 0.00 | 41 | 1017.7 |
| 20260506212923 | 15 | 355 | 6.4 | 20.9 | 0.00 | 0.00 | 0.00 | 39 | 1017.8 |
| 20260506212423 | 15 | 345 | 9.7 | 22.5 | 0.00 | 0.00 | 0.00 | 39 | 1017.8 |
| 20260506211922 | 15 | 329 | 12.9 | 22.5 | 0.00 | 0.00 | 0.00 | 41 | 1017.9 |
| 20260506211422 | 15 | 335 | 8.0 | 24.1 | 0.00 | 0.00 | 0.00 | 41 | 1017.8 |
| 20260506210922 | 15 | 9 | 11.3 | 29.0 | 0.00 | 0.00 | 0.00 | 41 | 1018.1 |
| 20260506210421 | 15 | 351 | 20.9 | 29.0 | 0.00 | 0.00 | 0.00 | 41 | 1018.2 |
| 20260506205921 | 15 | 340 | 9.7 | 24.1 | 0.00 | 0.00 | 0.00 | 40 | 1018.3 |
| 20260506205421 | 15 | 355 | 19.3 | 24.1 | 0.00 | 0.00 | 0.00 | 41 | 1018.4 |
| 20260506204920 | 15 | 329 | 4.8 | 24.1 | 0.00 | 0.00 | 0.00 | 40 | 1018.4 |
| 20260506204359 | 15 | 313 | 11.3 | 24.1 | 0.00 | 0.00 | 0.00 | 41 | 1018.3 |
| 20260506203858 | 15 | 275 | 3.2 | 14.5 | 0.00 | 0.00 | 0.00 | 40 | 1018.6 |
| 20260506203357 | 15 | 317 | 8.0 | 17.7 | 0.00 | 0.00 | 0.00 | 42 | 1018.5 |
| 20260506202857 | 15 | 333 | 9.7 | 17.7 | 0.00 | 0.00 | 0.00 | 43 | 1018.7 |
| 20260506202356 | 15 | 323 | 1.6 | 19.3 | 0.00 | 0.00 | 0.00 | 41 | 1018.8 |
| 20260506201855 | 15 | 349 | 14.5 | 20.9 | 0.00 | 0.00 | 0.00 | 43 | 1018.7 |
| 20260506201355 | 15 | 329 | 11.3 | 24.1 | 0.00 | 0.00 | 0.00 | 42 | 1018.7 |
| 20260506200854 | 15 | 331 | 19.3 | 25.7 | 0.00 | 0.00 | 0.00 | 43 | 1018.8 |
| 20260506200354 | 15 | 331 | 16.1 | 25.7 | 0.00 | 0.00 | 0.00 | 44 | 1018.8 |
| 20260506195853 | 14 | 322 | 4.8 | 9.7 | 0.00 | 0.00 | 0.00 | 44 | 1018.8 |
| 20260506195352 | 14 | 17 | 1.6 | 9.7 | 0.00 | 0.00 | 0.00 | 40 | 1018.7 |
| 20260506194852 | 14 | 301 | 3.2 | 24.1 | 0.00 | 0.00 | 0.00 | 43 | 1018.8 |
| 20260506194351 | 14 | 306 | 3.2 | 24.1 | 0.00 | 0.00 | 0.00 | 40 | 1018.8 |
| 20260506193851 | 14 | 323 | 6.4 | 16.1 | 0.00 | 0.00 | 0.00 | 42 | 1018.8 |
| 20260506193329 | 14 | 325 | 6.4 | 20.9 | 0.00 | 0.00 | 0.00 | 43 | 1018.9 |
| 20260506192829 | 14 | 338 | 14.5 | 20.9 | 0.00 | 0.00 | 0.00 | 42 | 1018.9 |
| 20260506192308 | 13 | 342 | 8.0 | 22.5 | 0.00 | 0.00 | 0.00 | 44 | 1018.9 |